St. Francis, KS

9:37 AM CDT on June 25, 2017 (GMT -0500)
Cheyenne County Municipal

Weather History for KSYF - July, 2013

Change the Weather History Date:

Sunday, July 7, 2013

  Actual Average Record
Temperature  
Mean Temperature 86 °F -  
Max Temperature 103 °F 94 °F 103 °F (2013)
Min Temperature 69 °F 63 °F 50 °F (2015)
Cooling Degree Days 20    
Growing Degree Days 36 (Base 50)    
Moisture  
Dew Point 52 °F    
Average Humidity 36    
Maximum Humidity 85    
Minimum Humidity 13    
Precipitation  
Precipitation 0.00 in - - ()
Sea Level Pressure  
Sea Level Pressure 29.93 in    
Wind  
Wind Speed 11 mph (WSW)    
Max Wind Speed 24 mph    
Max Gust Speed 30 mph    
Visibility 10 miles    
Events Rain    
Averages and records for this station are not official NWS values.
T = Trace of Precipitation, MM = Missing Value Source: NWS Daily Summary

Daily Weather History Graph

Daily Weather History Graph

Search for Another Location

Airport or City:

Trip Planner

Search our weather history database for the weather conditions in past years. The results will help you decide how hot, cold, wet, or windy it might be!

Date:

Astronomy

Jul. 07, 2013 Rise Set
Actual Time 6:26 AM CDT 9:17 PM CDT
Civil Twilight 5:54 AM CDT 9:49 PM CDT
Nautical Twilight 5:13 AM CDT 10:30 PM CDT
Astronomical Twilight 4:26 AM CDT 11:16 PM CDT
Moon 6:04 AM CDT (7/7) 8:43 PM CDT (7/7)
Length of Visible Light 15h 55m
Length of Day
14h 51m
Waning Crescent, 0% of the Moon is Illuminated
Jul 7
Waning Crescent
Jul 8
New
Jul 15
First Quarter
Jul 22
Full
Jul 29
Last Quarter

Hourly Weather History & Observations

Time (CDT) Temp. Heat Index Dew Point Humidity Pressure Visibility Wind Dir Wind Speed Gust Speed Precip Events Conditions
12:15 AM 83.3 °F - 51.1 °F 33% 29.88 in 10.0 mi South 12.7 mph 21.9 mph N/A   Clear
12:35 AM 83.5 °F - 50.5 °F 32% 29.88 in 10.0 mi SW 24.2 mph 28.8 mph N/A   Clear
12:55 AM 82.4 °F - 52.0 °F 35% 29.88 in 10.0 mi SW 17.3 mph 25.3 mph N/A   Clear
1:15 AM 81.5 °F - 52.7 °F 37% 29.88 in 10.0 mi SW 13.8 mph 21.9 mph N/A   Clear
1:35 AM 81.1 °F 80.6 °F 53.1 °F 38% 29.88 in 10.0 mi SW 17.3 mph 23.0 mph N/A   Clear
1:55 AM 80.6 °F 80.3 °F 53.2 °F 39% 29.88 in 10.0 mi WSW 15.0 mph - N/A   Clear
2:15 AM 79.7 °F - 53.6 °F 40% 29.89 in 10.0 mi WSW 10.4 mph - N/A   Clear
2:35 AM 78.8 °F - 53.6 °F 42% 29.90 in 10.0 mi WSW 10.4 mph - N/A   Clear
2:55 AM 78.3 °F - 53.6 °F 42% 29.90 in 10.0 mi WSW 9.2 mph - N/A   Clear
3:15 AM 77.9 °F - 54.0 °F 43% 29.89 in 10.0 mi WSW 11.5 mph - N/A   Clear
3:35 AM 77.4 °F - 54.1 °F 44% 29.90 in 10.0 mi SW 11.5 mph - N/A   Clear
3:55 AM 77.0 °F - 54.3 °F 45% 29.90 in 10.0 mi SW 9.2 mph - N/A   Clear
4:15 AM 75.6 °F - 54.5 °F 48% 29.91 in 10.0 mi SSW 10.4 mph - N/A   Clear
4:35 AM 74.8 °F - 54.5 °F 49% 29.91 in 10.0 mi SW 9.2 mph - N/A   Clear
4:55 AM 75.2 °F - 54.5 °F 48% 29.92 in 10.0 mi SSW 12.7 mph - N/A   Clear
5:15 AM 74.7 °F - 54.1 °F 49% 29.92 in 10.0 mi SW 9.2 mph - N/A   Clear
5:35 AM 72.7 °F - 54.0 °F 52% 29.93 in 10.0 mi WSW 4.6 mph - N/A   Clear
5:55 AM 71.1 °F - 54.5 °F 56% 29.93 in 10.0 mi SW 5.8 mph - N/A   Clear
6:15 AM 71.1 °F - 54.5 °F 56% 29.93 in 10.0 mi West 4.6 mph - N/A   Clear
6:35 AM 69.1 °F - 54.5 °F 60% 29.93 in 10.0 mi WSW 8.1 mph - N/A   Clear
6:55 AM 69.4 °F - 54.5 °F 59% 29.94 in 10.0 mi SW 9.2 mph - N/A   Clear
7:15 AM 72.7 °F - 54.0 °F 52% 29.93 in 10.0 mi SW 9.2 mph - N/A   Clear
7:35 AM 75.2 °F - 53.6 °F 47% 29.93 in 10.0 mi SW 10.4 mph - N/A   Clear
7:55 AM 76.8 °F - 52.9 °F 43% 29.93 in 10.0 mi WSW 11.5 mph - N/A   Clear
8:15 AM 78.4 °F - 52.2 °F 40% 29.94 in 10.0 mi West 8.1 mph - N/A   Clear
8:35 AM 81.0 °F - 50.0 °F 34% 29.95 in 10.0 mi West 10.4 mph 16.1 mph N/A   Clear
8:55 AM 82.0 °F - 51.4 °F 34% 29.94 in 10.0 mi WNW 10.4 mph - N/A   Clear
9:15 AM 82.4 °F 81.4 °F 53.4 °F 37% 29.94 in 10.0 mi West 8.1 mph - N/A   Clear
9:35 AM 83.3 °F 82.2 °F 54.3 °F 37% 29.95 in 10.0 mi West 6.9 mph - N/A   Clear
9:55 AM 84.7 °F 83.7 °F 56.5 °F 38% 29.96 in 10.0 mi NW 6.9 mph - N/A   Clear
10:15 AM 85.1 °F 84.3 °F 57.2 °F 39% 29.96 in 10.0 mi NW 8.1 mph - N/A   Clear
10:35 AM 86.0 °F 84.5 °F 55.6 °F 35% 29.96 in 10.0 mi NW 4.6 mph - N/A   Clear
10:55 AM 87.8 °F 85.9 °F 54.9 °F 32% 29.96 in 10.0 mi NNW 5.8 mph - N/A   Clear
11:15 AM 88.7 °F 86.5 °F 53.8 °F 30% 29.96 in 10.0 mi NNW 4.6 mph - N/A   Clear
11:35 AM 89.1 °F 86.7 °F 53.1 °F 29% 29.96 in 10.0 mi Calm Calm - N/A   Clear
11:55 AM 90.9 °F - 52.3 °F 27% 29.96 in 10.0 mi WNW 6.9 mph - N/A   Clear
12:15 PM 93.4 °F - 51.6 °F 24% 29.96 in 10.0 mi Calm Calm - N/A   Clear
12:35 PM 94.6 °F - 50.2 °F 22% 29.96 in 10.0 mi SW 4.6 mph - N/A   Clear
12:55 PM 95.5 °F - 47.5 °F 19% 29.96 in 10.0 mi WNW 6.9 mph - N/A   Clear
1:15 PM 95.9 °F - 46.9 °F 19% 29.96 in 10.0 mi Calm Calm - N/A   Clear
1:35 PM 97.3 °F - 46.2 °F 17% 29.95 in 10.0 mi West 4.6 mph - N/A   Clear
1:55 PM 97.9 °F - 45.3 °F 17% 29.94 in 10.0 mi Calm Calm - N/A   Clear
2:15 PM 99.1 °F - 44.2 °F 15% 29.94 in 10.0 mi North 4.6 mph - N/A   Clear
2:35 PM 100.8 °F - 42.3 °F 13% 29.93 in 10.0 mi NNW 5.8 mph - N/A   Clear
2:55 PM 99.9 °F - 42.3 °F 14% 29.93 in 10.0 mi Calm Calm - N/A   Clear
3:15 PM 101.1 °F - 44.8 °F 15% 29.93 in 10.0 mi NNW 5.8 mph - N/A   Scattered Clouds
3:35 PM 99.3 °F - 46.0 °F 16% 29.92 in 10.0 mi North 8.1 mph - N/A   Mostly Cloudy
3:55 PM 99.3 °F - 45.5 °F 16% 29.92 in 10.0 mi North 8.1 mph - N/A   Mostly Cloudy
4:15 PM 101.5 °F - 45.0 °F 15% 29.91 in 10.0 mi ENE 5.8 mph - N/A   Scattered Clouds
4:35 PM 101.7 °F - 44.1 °F 14% 29.91 in 10.0 mi North 4.6 mph - N/A   Clear
4:55 PM 102.6 °F - 44.2 °F 14% 29.91 in 10.0 mi ENE 9.2 mph 18.4 mph N/A   Scattered Clouds
5:15 PM 99.0 °F - 44.6 °F 16% 29.91 in 10.0 mi ENE 9.2 mph - N/A   Mostly Cloudy
5:35 PM 100.0 °F - 41.7 °F 14% 29.90 in 10.0 mi ENE 9.2 mph - N/A   Scattered Clouds
5:55 PM 99.1 °F - 45.5 °F 16% 29.90 in 10.0 mi SE 20.7 mph 25.3 mph N/A   Clear
6:15 PM 94.6 °F - 50.5 °F 22% 29.90 in 10.0 mi SE 19.6 mph 29.9 mph N/A   Scattered Clouds
6:35 PM 96.1 °F - 49.6 °F 21% 29.90 in 10.0 mi SE 18.4 mph 25.3 mph N/A   Clear
6:55 PM 91.2 °F - 51.1 °F 25% 29.91 in 10.0 mi ESE 20.7 mph 27.6 mph N/A   Clear
7:15 PM 90.5 °F - 51.6 °F 26% 29.91 in 10.0 mi ESE 15.0 mph - N/A   Scattered Clouds
7:35 PM 90.5 °F - 52.2 °F 27% 29.90 in 10.0 mi ESE 12.7 mph - N/A   Scattered Clouds
7:55 PM 90.5 °F 88.1 °F 53.4 °F 28% 29.90 in 10.0 mi SE 6.9 mph - N/A   Clear
8:15 PM 88.2 °F 86.3 °F 54.7 °F 32% 29.91 in 10.0 mi SE 5.8 mph - N/A   Clear
8:35 PM 88.0 °F - 52.7 °F 30% 29.92 in 10.0 mi ESE 6.9 mph - N/A   Clear
8:55 PM 87.3 °F 85.3 °F 54.1 °F 32% 29.92 in 10.0 mi SSE 20.7 mph - N/A   Scattered Clouds
9:15 PM 84.4 °F 83.5 °F 57.2 °F 39% 29.92 in 10.0 mi South 20.7 mph 25.3 mph N/A   Scattered Clouds
9:35 PM 84.2 °F 83.3 °F 56.7 °F 39% 29.92 in 10.0 mi South 18.4 mph 25.3 mph N/A   Clear
9:55 PM 84.0 °F 83.2 °F 56.3 °F 39% 29.94 in 10.0 mi South 18.4 mph 23.0 mph N/A   Clear
10:15 PM 82.9 °F 82.7 °F 58.5 °F 43% 30.01 in 10.0 mi North 13.8 mph 26.5 mph N/A   Mostly Cloudy
10:35 PM 77.0 °F - 63.7 °F 63% 30.01 in 10.0 mi North 9.2 mph 24.2 mph N/A Rain Light Rain
10:55 PM 73.6 °F - 65.3 °F 75% 30.01 in 10.0 mi NNE 6.9 mph - N/A Rain Light Rain
11:15 PM 72.1 °F - 66.6 °F 83% 30.05 in 10.0 mi NNE 6.9 mph - N/A   Light Drizzle
11:35 PM 71.1 °F - 66.4 °F 85% 30.06 in 10.0 mi NE 6.9 mph - N/A Rain Light Rain
11:55 PM 70.9 °F - 65.8 °F 84% 30.07 in 10.0 mi ENE 10.4 mph - N/A   Scattered Clouds